SYRK1: Arkansas R at Syracuse, KS

Data processed at Sat Mar 10 2018 23:29


All information presented herein is the property of the government of the United States of America and may be revised or deleted at any time without prior notice.
Dissemination of this information without the expressed written consent of the Public Affairs Office, Tulsa District U.S. Army Corps of Engineers is strictly prohibited.
These data are gathered electronically and, as presented, have not undergone any form of quality control. These data are not guaranteed to be valid or correct.
Go to home page.
Go to station list.

Upstream stations:


Previous Day
Next Day
Current Day
    
SHEF ID:       SYRK1     ARKANSAS R AT SYRACUSE, KS
STATION TYPE:  

               PRECIP     STAGE  RIV-FLOW  BAT-LOAD
                   in        ft       cfs      volt
              Ccp-Rev   Ccp-Rev   Ccp-Rev   Ccp-Rev
(US/Central)
03/08 00:00      0.00      4.41       125     12.65
03/08 01:00      0.00      4.41       125     12.60
03/08 02:00      0.00      4.41       125     12.54
03/08 03:00      0.00      4.41       125     12.48
03/08 04:00      0.00      4.40       124     12.42
03/08 05:00      0.00      4.40       124     12.42
03/08 06:00      0.00      4.40       124     12.36
03/08 07:00      0.00      4.40       124     12.36
03/08 08:00      0.00      4.40       124     12.36
03/08 09:00      0.00      4.41       125     12.77
03/08 10:00      0.00      4.40       124     13.48
03/08 11:00      0.00      4.39       123     13.65
03/08 12:00      0.00      4.40       124     13.48
03/08 13:00      0.00      4.41       125     13.48
03/08 14:00      0.00      4.41       125     13.48
03/08 15:00      0.00      4.42       127     13.36
03/08 16:00      0.00      4.43       128     13.30
03/08 17:00      0.00      4.44       129     13.18
03/08 18:00      0.00      4.45       130     13.12
03/08 19:00      0.00      4.44       129     12.89
03/08 20:00      0.00      4.45       130     12.83
03/08 21:00      0.00      4.47       133     12.77
03/08 22:00      0.00      4.46       132     12.24
03/08 23:00      0.00      4.48       134     12.65